Weather in Hobart

Australia     42°49′07″S   147°17′50″E
temp.,
°C
wind,
m/s
gust,
m/s
humid.,
%
clouds,
%
prec.,
mm/h
press.,
hPa
HPBL,
m
7 july, thu
thu701:00+5n129263 0.0 101638
04:00+5wnw119151 0.0 101420
07:00+6nw2391100 0.4 101381
10:00+7nw13803 0.4 1012305
13:00+11wnw376072 0.0 10101296
16:00+9nw256761 0.0 1008302
19:00+6wsw118599 0.2 100829
22:00+6nw138997 0.3 1007101
8 july, fri
fri801:00+5w119499 0.4 100632
04:00+6wsw1293100 0.9 100770
07:00+6w2293100 0.1 100785
10:00+8wsw2484100 0.2 1008330
13:00+7ssw1390100 0.5 1008158
16:00+7wsw2393100 3.2 1009170
19:00+7ssw1294100 0.6 101362
22:00+6sw1294100 0.8 101554
9 july, sat
sat901:00+7s2394100 0.4 1017144
04:00+7sse2593100 1.3 1019244
07:00+7ssw1293100 0.8 102240
10:00+8sse1391100 1.1 1023275
13:00+9se2587100 1.3 1024540
16:00+8se2385100 1.6 102697
19:00+7se1183100 0.1 102814
22:00+6ese007954 0.1 103010
10 july, sun
sun1001:00+3w11875 0.0 103011
04:00+2wnw22925 0.0 103122
07:00+1wnw22940 0.0 103127
10:00+5nw22820 0.0 1031162
13:00+10nnw24650 0.0 1028779
16:00+9nne11690 0.0 102733
19:00+3nw11871 0.0 102714
22:00+2nw2293100 0.0 102744
11 july, mon
mon1101:00+2nw239552 0.0 102658
04:00+1nw239617 0.0 102449
07:00+1nw239698 0.0 102367
10:00+5nw2380100 0.0 1022141
13:00+10nw2564100 0.0 1018585
16:00+9n2368100 0.0 101660
19:00+6nne118870 0.0 101619
22:00+4nw1196100 0.0 101619